Location: San Pelegr�n
(42.1868°N, 0.0079°E)
Time: 03:49:40
(UTC+00:00)

Cosmos 2237 Rocket - Pass Details

Date: 24 January 2020
Orbit: 837 x 848 km, 71.0° (Epoch: 18 February)

Event Time Altitude Azimuth Distance (km) Brightness Sun altitude
Rises 18:42:18 0° 325° (NW) 3,395 5.7 -18.2°
Reaches altitude 10° 18:45:01 10° 315° (NW) 2,456 5.1 -18.7°
Maximum altitude 18:49:48 30° 257° (WSW) 1,469 4.2 -19.6°
Drops below altitude 10° 18:54:36 10° 198° (SSW) 2,442 4.9 -20.5°
Sets 18:57:17 0° 187° (S) 3,373 5.5 -21.0°
